This demonstration page uses our WeatherBlox Daily Observations layout. Learn more.

Left ArrowRight Arrow

38.83388, -104.82136

Hourly Observations for August 15, 2022

Temp ( °F °C ) Dew Point ( °F °C ) Humidity (%) Winds ( mph kmh ) Pressure ( in mb ) Visibility ( mi km ) Precip ( " mm )
12:54 am 00:54 Mostly Cloudy 69 20.6 53 11.7 57 57 NNW 17 28 29.88 1012 10 16 0.00 0.00
1:54 am 01:54 Mostly Cloudy 69 20.6 52 11.1 54 54 NNW 14 22 29.87 1012 10 16 0.00 0.00
2:54 am 02:54 Partly Cloudy 69 20.6 52 11.1 54 54 NW 12 19 29.88 1012 10 16 0.00 0.00
3:54 am 03:54 Partly Cloudy 68 20 52 11.1 57 57 NW 9 15 29.91 1013 10 16 0.00 0.00
4:54 am 04:54 Mostly Clear 67 19.4 52 11.1 59 59 NW 9 15 29.92 1013 10 16 0.00 0.00
5:54 am 05:54 Partly Cloudy 65 18.3 51 10.6 61 61 WNW 7 11 29.92 1013 10 16 0.00 0.00
6:54 am 06:54 Partly Cloudy 65 18.3 52 11.1 63 63 NNE 5 7 29.94 1014 10 16 0.00 0.00
7:54 am 07:54 Mostly Sunny 74 23.3 51 10.6 45 45 N 6 9 29.93 1014 10 16 0.00 0.00
8:54 am 08:54 Mostly Sunny 76 24.4 51 10.6 42 42 E 8 13 29.92 1013 10 16 0.00 0.00
9:54 am 09:54 Partly Cloudy 78 25.6 50 10 37 37 ESE 6 9 29.92 1013 10 16 0.00 0.00
10:54 am 10:54 Partly Cloudy 80 26.7 50 10 35 35 E 5 7 29.93 1014 10 16 0.00 0.00
11:54 am 11:54 Partly Cloudy 82 27.8 51 10.6 34 34 SE 6 9 29.91 1013 10 16 0.00 0.00
12:54 pm 12:54 Partly Cloudy 85 29.4 51 10.6 31 31 SE 6 9 29.89 1012 10 16 0.00 0.00
1:54 pm 13:54 Partly Cloudy 87 30.6 51 10.6 29 29 S 8 13 29.86 1011 10 16 0.00 0.00
2:54 pm 14:54 Mostly Cloudy 86 30 48 8.9 27 27 SSE 14 22 29.84 1010 10 16 0.00 0.00
3:54 pm 15:54 Mostly Cloudy 86 30 49 9.4 28 28 E 9 15 29.83 1010 10 16 0.00 0.00
4:29 pm 16:29 Mostly Cloudy with Thunderstorms 74 23.3 53 11.7 48 48 NNE 10 17 29.73 1007 10 16 0.01 0.13
4:44 pm 16:44 Mostly Cloudy with Thunderstorms 64 17.8 59 15 84 84 N 16 26 29.84 1010 10 16 0.17 4.32
4:54 pm 16:54 Windy with Storms Likely 64 17.8 60 15.6 87 87 NNE 20 31 29.95 1014 10 16 0.20 5.08
5:54 pm 17:54 Mostly Cloudy with Nearby Thunderstorms 65 18.3 59 15 81 81 N 20 31 29.99 1016 10 16 0.01 0.13
6:15 pm 18:15 Mostly Cloudy 65 18.3 55 12.8 70 70 NNW 15 24 29.87 1012 10 16 0.00 0.00
6:54 pm 18:54 Mostly Cloudy 66 18.9 55 12.8 68 68 NNW 24 39 29.99 1016 10 16 0.00 0.00
7:54 pm 19:54 Cloudy 65 18.3 56 13.3 73 73 NNW 23 37 29.96 1015 10 16 0.00 0.00
8:54 pm 20:54 Cloudy with Rain 65 18.3 55 12.8 70 70 NW 18 30 30.05 1018 4 6 0.01 0.13
9:00 pm 21:00 Cloudy with Nearby Thunderstorms 63 17.2 57 13.9 81 81 NW 15 24 29.98 1015 3 5 0.03 0.76
9:04 pm 21:04 Cloudy with Thunderstorms 62 16.7 58 14.4 86 86 NW 16 26 29.99 1016 3 5 0.07 1.78
9:27 pm 21:27 Cloudy with Nearby Thunderstorms 61 16.1 59 15 93 93 NW 17 28 30.00 1016 7 11 0.15 3.81
9:54 pm 21:54 Cloudy with Light Rain 62 16.7 59 15 90 90 N 18 30 30.06 1018 8 13 0.21 5.33
10:54 pm 22:54 Cloudy 63 17.2 58 14.4 84 84 N 18 30 30.03 1017 10 16 0.01 0.25
11:54 pm 23:54 Mostly Cloudy 62 16.7 56 13.3 80 80 NW 15 24 30.02 1017 10 16 0.00 0.00

Powered by AerisWeather